This demonstration page uses our WeatherBlox Daily Observations layout. Learn more.

41.55636, -103.73856

Hourly Observations for June 20, 2020

Temp ( °F °C ) Dew Point ( °F °C ) Humidity (%) Winds ( mph kmh ) Pressure ( in mb ) Visibility ( mi km ) Precip ( " mm )
12:58 am 00:58 Mostly Clear 66 19 44 6.9 46 46 SW 13 20 30 1016 10 16.0934 0 0
1:58 am 01:58 Mostly Cloudy 63 17.4 45 7.2 51 51 WSW 5 7 30 1016 10 16.0934 0 0
2:58 am 02:58 Partly Cloudy 58 14.4 49 9.2 71 71 ESE 7 11 30.01 1016 10 16.0934 0 0
3:58 am 03:58 Clear 53 11.9 48 8.8 81 81 NE 7 11 30.04 1017 10 16.0934 0 0
4:58 am 04:58 Clear 51 10.3 46 8 86 86 SSW 6 9 30.04 1017 10 16.0934 0 0
5:58 am 05:58 Clear 55 12.6 48 8.8 78 78 SSE 12 19 30 1016 10 16.0934 0 0
6:58 am 06:58 Clear 54 12.2 50 9.8 85 85 S 17 28 29.99 1016 10 16.0934 0 0
7:58 am 07:58 Mostly Clear 53 11.5 51 10.5 94 94 S 21 33 29.97 1015 8 12.87472 0 0
8:58 am 08:58 Clear 54 12.1 51 10.7 91 91 SSW 12 19 29.95 1014 10 16.0934 0 0
9:58 am 09:58 Clear 53 11.9 50 10 88 88 SSW 6 9 29.96 1015 10 16.0934 0 0
10:58 am 10:58 Mostly Clear 51 10.7 48 9 89 89 SW 12 19 29.96 1015 10 16.0934 0 0
11:58 am 11:58 Mostly Sunny 55 12.7 46 7.6 71 71 Calm 29.94 1014 10 16.0934 0 0
12:58 pm 12:58 Sunny 59 14.8 49 9.3 70 70 SW 10 17 29.93 1013 10 16.0934 0 0
1:58 pm 13:58 Sunny 65 18.5 47 8.1 51 51 W 12 19 29.93 1014 10 16.0934 0 0
2:58 pm 14:58 Sunny 69 20.3 37 2.6 31 31 WNW 16 26 29.95 1014 10 16.0934 0 0
3:58 pm 15:58 Sunny 68 19.8 42 5.3 39 39 WNW 15 24 29.97 1015 10 16.0934 0 0
4:58 pm 16:58 Sunny 71 21.9 42 5.5 35 35 NNW 14 22 29.95 1014 10 16.0934 0 0
5:58 pm 17:58 Sunny 76 24.3 40 4.2 27 27 NW 14 22 29.93 1014 10 16.0934 0 0
6:58 pm 18:58 Sunny 78 25.4 36 2 22 22 NW 13 20 29.9 1013 10 16.0934 0 0
7:58 pm 19:58 Mostly Sunny 79 25.9 37 2.7 22 22 NNW 13 20 29.88 1012 10 16.0934 0 0
8:58 pm 20:58 Sunny 81 27 34 1.3 19 19 N 14 22 29.87 1012 10 16.0934 0 0
9:58 pm 21:58 Sunny 81 27.3 32 0.1 17 17 NNW 8 13 29.86 1011 10 16.0934 0 0
10:58 pm 22:58 Sunny 81 27.1 31 -0.5 16 16 NNW 5 7 29.85 1011 10 16.0934 0 0
11:58 pm 23:58 Sunny 82 27.6 31 -0.3 16 16 N 10 17 29.83 1010 10 16.0934 0 0

Powered by AerisWeather